Radiation Dose at Monitoring Post of Fukushima Daini Nuclear Power Station
Date,Time,MP-1(microSv/h),MP-2(microSv/h),MP-3(microSv/h),MP-4(microSv/h),MP-5(microSv/h),MP-6(microSv/h),MP-7(microSv/h),Wind Direction,Wind Velocity(m/s),Rain
2016/06/10,00:00,0.421,0.252,0.437,0.397,0.375,0.208,0.182,north-northwest,1.0,No
2016/06/10,00:10,0.418,0.251,0.436,0.399,0.377,0.206,0.180,north,0.6,No
2016/06/10,00:20,0.419,0.250,0.438,0.398,0.372,0.207,0.178,west,0.8,No
2016/06/10,00:30,0.416,0.247,0.434,0.395,0.376,0.205,0.180,west-northwest,0.5,No
2016/06/10,00:40,0.417,0.250,0.437,0.397,0.372,0.203,0.177,north-northwest,0.8,No
2016/06/10,00:50,0.416,0.248,0.434,0.393,0.373,0.203,0.178,north-northwest,1.9,Yes
2016/06/10,01:00,0.417,0.248,0.436,0.397,0.375,0.203,0.176,north-northwest,3.1,Yes
2016/06/10,01:10,0.418,0.250,0.436,0.395,0.371,0.204,0.178,north-northwest,3.6,Yes
2016/06/10,01:20,0.416,0.248,0.432,0.395,0.376,0.204,0.179,north-northeast,3.0,Yes
2016/06/10,01:30,0.418,0.250,0.437,0.395,0.373,0.203,0.178,north,3.2,Yes
2016/06/10,01:40,0.413,0.249,0.434,0.393,0.375,0.203,0.177,north-northwest,3.1,No
2016/06/10,01:50,0.416,0.248,0.436,0.396,0.372,0.202,0.175,north-northwest,2.6,No
2016/06/10,02:00,0.414,0.247,0.434,0.391,0.372,0.201,0.175,north-northwest,2.5,No
2016/06/10,02:10,0.415,0.246,0.432,0.396,0.373,0.201,0.175,north-northwest,2.4,No
2016/06/10,02:20,0.414,0.247,0.434,0.393,0.370,0.200,0.174,north-northwest,3.1,No
2016/06/10,02:30,0.412,0.246,0.429,0.392,0.374,0.202,0.174,north,3.1,No
2016/06/10,02:40,0.414,0.246,0.434,0.394,0.368,0.200,0.174,north-northeast,3.6,No
2016/06/10,02:50,0.412,0.244,0.431,0.390,0.372,0.200,0.173,north,4.8,No
2016/06/10,03:00,0.415,0.245,0.432,0.392,0.369,0.199,0.173,north,5.5,No
2016/06/10,03:10,0.411,0.244,0.431,0.391,0.372,0.199,0.173,north,5.5,No
2016/06/10,03:20,0.412,0.246,0.431,0.393,0.370,0.200,0.172,north,4.2,No
2016/06/10,03:30,0.411,0.244,0.433,0.391,0.371,0.199,0.172,north,3.2,No
2016/06/10,03:40,0.413,0.245,0.430,0.392,0.372,0.199,0.173,north,4.3,No
2016/06/10,03:50,0.411,0.244,0.432,0.391,0.371,0.198,0.172,north,5.1,No
2016/06/10,04:00,0.414,0.244,0.430,0.394,0.370,0.199,0.172,north,6.0,No
2016/06/10,04:10,0.413,0.244,0.433,0.391,0.371,0.198,0.172,north,5.3,No
2016/06/10,04:20,0.413,0.245,0.429,0.391,0.370,0.198,0.173,north-northwest,6.7,No
2016/06/10,04:30,0.412,0.243,0.432,0.391,0.369,0.199,0.171,north-northwest,7.2,No
2016/06/10,04:40,0.413,0.245,0.430,0.391,0.369,0.199,0.173,north-northwest,5.8,No
2016/06/10,04:50,0.413,0.243,0.433,0.391,0.370,0.198,0.172,north-northwest,4.8,No
2016/06/10,05:00,0.411,0.245,0.431,0.391,0.370,0.199,0.172,north-northwest,3.9,No
2016/06/10,05:10,0.413,0.243,0.434,0.392,0.369,0.198,0.172,north,4.1,No
2016/06/10,05:20,0.411,0.245,0.431,0.392,0.370,0.200,0.173,north,5.0,No
2016/06/10,05:30,0.414,0.244,0.432,0.391,0.367,0.198,0.172,north,4.7,No
2016/06/10,05:40,0.411,0.243,0.430,0.391,0.369,0.200,0.172,north,4.4,No
2016/06/10,05:50,0.413,0.243,0.431,0.393,0.367,0.199,0.172,north,2.9,No
2016/06/10,06:00,0.412,0.243,0.431,0.390,0.371,0.199,0.171,north,2.1,No
2016/06/10,06:10,0.415,0.242,0.430,0.393,0.369,0.198,0.172,east-northeast,0.7,No
2016/06/10,06:20,0.412,0.244,0.431,0.389,0.366,0.199,0.173,northeast,0.5,No
2016/06/10,06:30,0.413,0.244,0.430,0.394,0.370,0.198,0.171,west-northwest,0.9,No
2016/06/10,06:40,0.413,0.242,0.434,0.390,0.371,0.199,0.170,north-northwest,1.3,No
2016/06/10,06:50,0.413,0.242,0.428,0.393,0.370,0.198,0.170,north-northwest,1.4,No
2016/06/10,07:00,0.413,0.243,0.432,0.391,0.372,0.199,0.172,north-northwest,1.9,No
2016/06/10,07:10,0.413,0.245,0.431,0.387,0.369,0.200,0.171,north-northeast,1.3,No
2016/06/10,07:20,0.414,0.244,0.429,0.393,0.371,0.198,0.173,northeast,1.6,No
2016/06/10,07:30,0.412,0.243,0.424,0.391,0.370,0.199,0.171,northeast,1.7,No
2016/06/10,07:40,0.413,0.242,0.424,0.387,0.368,0.198,0.171,east-northeast,2.2,No
2016/06/10,07:50,0.414,0.242,0.426,0.388,0.371,0.198,0.171,northeast,2.5,No
2016/06/10,08:00,0.413,0.245,0.432,0.393,0.370,0.198,0.172,east-northeast,2.4,No
2016/06/10,08:10,0.412,0.244,0.434,0.391,0.368,0.198,0.171,east-northeast,1.8,No
2016/06/10,08:20,0.416,0.243,0.428,0.389,0.369,0.199,0.172,northeast,2.5,No
2016/06/10,08:30,0.413,0.243,0.427,0.387,0.371,0.198,0.171,east-northeast,1.4,No
2016/06/10,08:40,0.412,0.243,0.426,0.387,0.370,0.199,0.171,east-southeast,1.6,No
2016/06/10,08:50,0.416,0.242,0.432,0.387,0.367,0.199,0.171,east-southeast,1.0,No
2016/06/10,09:00,0.415,0.242,0.434,0.389,0.368,0.198,0.172,east-southeast,2.2,No
2016/06/10,09:10,0.413,0.244,0.432,0.388,0.372,0.198,0.171,east-northeast,1.9,No
2016/06/10,09:20,0.411,0.244,0.431,0.389,0.372,0.200,0.172,east,1.9,No
2016/06/10,09:30,0.409,0.243,0.430,0.391,0.371,0.199,0.171,northeast,1.6,No
2016/06/10,09:40,0.410,0.243,0.435,0.391,0.369,0.200,0.172,north-northeast,1.8,No
2016/06/10,09:50,0.418,0.244,0.434,0.392,0.368,0.200,0.172,northeast,1.7,No
2016/06/10,10:00,0.418,0.246,0.430,0.394,0.369,0.199,-,northeast,2.2,No
2016/06/10,10:10,0.417,0.245,0.432,0.393,0.367,0.200,-,north-northeast,2.0,No
2016/06/10,10:20,0.415,0.245,0.434,0.393,0.368,0.200,-,north,2.6,No
2016/06/10,10:30,0.412,0.245,0.434,0.392,0.368,0.200,-,north,1.7,No
2016/06/10,10:40,0.414,0.243,0.433,0.393,0.370,0.199,-,northeast,2.8,No
2016/06/10,10:50,0.412,0.243,0.432,0.391,0.369,0.202,-,east-northeast,3.6,No
2016/06/10,11:00,0.414,0.242,0.430,0.393,0.370,0.201,-,east-northeast,2.8,No
2016/06/10,11:10,0.414,0.243,0.430,0.393,0.375,0.200,-,east-northeast,2.1,No
2016/06/10,11:20,0.415,0.244,0.431,0.392,0.376,0.201,-,east-northeast,1.7,No
2016/06/10,11:30,0.414,0.243,0.432,0.392,0.375,0.202,-,east,2.7,No
2016/06/10,11:40,0.415,0.242,0.430,0.393,0.373,0.202,-,east-northeast,2.0,No
2016/06/10,11:50,0.416,0.245,0.431,0.394,0.371,0.201,-,east,3.5,No
2016/06/10,12:00,0.415,0.245,0.435,0.393,0.371,0.201,-,east-southeast,2.2,No
2016/06/10,12:10,0.415,0.245,0.433,0.394,0.370,0.203,-,east,2.5,No
2016/06/10,12:20,0.415,0.248,0.433,0.394,0.371,0.202,-,east-southeast,2.4,No
2016/06/10,12:30,0.421,0.247,0.432,0.395,0.371,0.203,-,east,1.0,No
2016/06/10,12:40,0.421,0.247,0.434,0.395,0.373,0.202,-,northeast,1.7,No
2016/06/10,12:50,0.421,0.246,0.433,0.396,0.376,0.202,-,east-southeast,2.2,No
2016/06/10,13:00,0.418,0.245,0.435,0.395,0.377,0.202,-,east,1.7,No
2016/06/10,13:10,0.417,0.245,0.435,0.395,0.373,0.202,-,east,2.6,No
2016/06/10,13:20,0.415,0.246,0.434,0.396,0.374,0.202,-,east-northeast,2.3,No
2016/06/10,13:30,0.417,0.245,0.437,0.394,0.372,0.202,-,east,1.8,No
2016/06/10,13:40,0.423,0.245,0.434,0.394,0.371,0.202,-,east-southeast,1.7,No
2016/06/10,13:50,0.421,0.244,0.435,0.397,0.373,0.202,-,south,1.1,No
2016/06/10,14:00,0.420,0.244,0.437,0.397,0.372,0.202,-,east,1.0,No
2016/06/10,14:10,0.419,0.244,0.435,0.395,0.373,0.201,-,east,1.3,No
2016/06/10,14:20,0.417,0.244,0.436,0.396,0.373,0.203,-,east,1.1,No
2016/06/10,14:30,0.417,0.246,0.436,0.396,0.372,0.202,-,southeast,1.6,No
2016/06/10,14:40,0.417,0.244,0.435,0.394,0.373,0.201,-,south-southeast,1.6,No
2016/06/10,14:50,0.418,0.246,0.435,0.395,0.373,0.202,-,southeast,2.1,No
2016/06/10,15:00,0.417,0.245,0.435,0.397,0.374,0.203,0.174,south-southeast,2.5,No
2016/06/10,15:10,0.422,0.244,0.434,0.403,0.374,0.202,0.176,south-southeast,2.5,No
2016/06/10,15:20,0.423,0.245,0.435,0.400,0.373,0.203,0.177,south-southeast,2.5,No
2016/06/10,15:30,0.422,0.245,0.436,0.397,0.375,0.203,0.177,south,2.2,No
2016/06/10,15:40,0.419,0.244,0.437,0.399,0.374,0.203,0.176,south-southeast,1.7,No
2016/06/10,15:50,0.421,0.245,0.436,0.401,0.373,0.203,0.175,south-southeast,3.5,No
2016/06/10,16:00,0.424,0.246,0.434,0.398,0.373,0.203,0.176,south,4.1,No
2016/06/10,16:10,0.422,0.248,0.435,0.396,0.373,0.203,0.177,south,4.8,No
2016/06/10,16:20,0.418,0.245,0.441,0.401,0.375,0.202,0.176,south-southeast,4.6,No
2016/06/10,16:30,0.417,0.247,0.440,0.400,0.375,0.204,0.177,south,4.3,No
2016/06/10,16:40,0.423,0.250,0.438,0.396,0.375,0.205,0.177,south,4.7,No
2016/06/10,16:50,0.422,0.248,0.440,0.400,0.373,0.204,0.176,south,4.3,No
2016/06/10,17:00,0.419,0.249,0.442,0.400,0.373,0.204,0.177,south-southwest,5.0,No
2016/06/10,17:10,0.418,0.248,0.437,0.397,0.372,0.203,0.177,south,4.9,No
2016/06/10,17:20,0.423,0.248,0.437,0.400,0.370,0.203,0.175,south,4.7,No
2016/06/10,17:30,0.421,0.248,0.440,0.399,0.373,0.204,0.177,south,5.9,No
2016/06/10,17:40,0.417,0.248,0.437,0.398,0.373,0.204,0.176,south-southwest,5.6,No
2016/06/10,17:50,0.423,0.248,0.435,0.400,0.380,0.204,0.176,south-southwest,4.9,No
2016/06/10,18:00,0.422,0.249,0.440,0.398,0.376,0.202,0.178,south,5.1,No
2016/06/10,18:10,0.419,0.247,0.438,0.399,0.375,0.202,0.175,south,4.5,No
2016/06/10,18:20,0.423,0.247,0.438,0.400,0.372,0.203,0.177,south,5.3,No
2016/06/10,18:30,0.422,0.249,0.439,0.397,0.376,0.202,0.176,south-southwest,5.4,No
2016/06/10,18:40,0.419,0.246,0.437,0.401,0.375,0.203,0.176,south-southwest,5.3,No
2016/06/10,18:50,0.423,0.248,0.440,0.398,0.375,0.203,0.176,south,6.5,No
2016/06/10,19:00,0.421,0.248,0.440,0.399,0.378,0.203,0.176,south-southwest,6.2,No
2016/06/10,19:10,0.420,0.249,0.436,0.401,0.376,0.203,0.177,south-southwest,3.3,No
2016/06/10,19:20,0.423,0.248,0.441,0.398,0.377,0.204,0.175,south-southwest,5.0,No
2016/06/10,19:30,0.419,0.249,0.438,0.401,0.375,0.203,0.177,south-southwest,5.8,No
2016/06/10,19:40,0.423,0.249,0.439,0.397,0.378,0.203,0.175,south-southwest,6.7,No
2016/06/10,19:50,0.420,0.247,0.438,0.400,0.376,0.203,0.176,south-southwest,6.9,No
2016/06/10,20:00,0.423,0.248,0.440,0.399,0.377,0.203,0.176,south-southwest,5.0,No
2016/06/10,20:10,0.422,0.248,0.441,0.400,0.376,0.204,0.178,south-southwest,4.5,No
2016/06/10,20:20,0.423,0.248,0.440,0.401,0.375,0.204,0.176,south-southwest,4.8,No
2016/06/10,20:30,0.422,0.249,0.441,0.399,0.376,0.204,0.177,south-southwest,4.9,No
2016/06/10,20:40,0.424,0.248,0.438,0.402,0.375,0.204,0.177,south-southwest,4.7,No
2016/06/10,20:50,0.422,0.249,0.440,0.399,0.376,0.204,0.177,south-southwest,4.5,No
2016/06/10,21:00,0.423,0.248,0.437,0.402,0.376,0.203,0.177,south-southwest,4.2,No
2016/06/10,21:10,0.421,0.248,0.441,0.398,0.376,0.203,0.178,southwest,4.5,No
2016/06/10,21:20,0.422,0.247,0.438,0.401,0.375,0.202,0.177,south-southwest,3.6,No
2016/06/10,21:30,0.422,0.250,0.441,0.399,0.378,0.204,0.177,southwest,3.2,No
2016/06/10,21:40,0.422,0.248,0.439,0.400,0.374,0.204,0.178,southwest,3.6,No
2016/06/10,21:50,0.422,0.249,0.439,0.400,0.377,0.204,0.177,south-southwest,3.9,No
2016/06/10,22:00,0.424,0.249,0.438,0.400,0.375,0.203,0.177,south-southwest,3.9,No
2016/06/10,22:10,0.421,0.250,0.443,0.401,0.378,0.203,0.177,south-southwest,3.9,No
2016/06/10,22:20,0.424,0.248,0.438,0.401,0.374,0.204,0.176,south-southwest,4.3,No
2016/06/10,22:30,0.420,0.249,0.442,0.400,0.378,0.204,0.176,south-southwest,4.2,No
2016/06/10,22:40,0.425,0.249,0.439,0.401,0.374,0.202,0.177,south-southwest,3.9,No
2016/06/10,22:50,0.422,0.247,0.441,0.401,0.377,0.203,0.177,south-southwest,3.8,No
2016/06/10,23:00,0.425,0.250,0.438,0.402,0.374,0.204,0.177,south-southwest,4.2,No
2016/06/10,23:10,0.422,0.248,0.442,0.401,0.375,0.203,0.178,southwest,3.4,No
2016/06/10,23:20,0.423,0.249,0.437,0.399,0.374,0.203,0.178,southwest,2.9,No
2016/06/10,23:30,0.422,0.248,0.441,0.403,0.376,0.203,0.178,south-southwest,2.8,No
2016/06/10,23:40,0.424,0.250,0.441,0.402,0.375,0.204,0.177,southwest,2.7,No
2016/06/10,23:50,0.424,0.248,0.439,0.401,0.375,0.204,0.178,southwest,2.5,No
